Location: Unspecified
(0.0000°N, 0.0000°E)
Time: 11:12:04
(UTC+00:00)

S80/T - Pass Details

Date: 15 June 2023
Orbit: 1308 x 1320 km, 66.1° (Epoch: 22 September)

Event Time Altitude Azimuth Distance (km) Brightness Sun altitude
Rises 19:53:44 0° 14° (NNE) 4,300 ? -25.8°
Reaches altitude 10° 19:58:08 10° 36° (NE) 3,334 ? -26.8°
Enters shadow 20:00:08 14° 50° (NE) 3,064 ? -27.2°
